"Pseudo-MPEC" for N00esca

Created 2019 May 21 9:07:12 UT using Find_Orb

Click here for an explanation of pseudo-MPECs

 
 Astrometry: 
     N00esca  S2019 05 07f60*E/JrOv7GW1n,xgM\xjNtXPN-4nwDSB%lQlihmFa-x)Z4[$U\C51
     N00esca  s2019 05 07mKd92w8??=\fn(/]OU7jisv#TT?d6fiT@)AqA`k8BW,JfCSuZD8#C51
     N00esca  S2019 05 07=hLwj3@3BacX7I#OFZ6pY$PnHBqAstrometry?dREaR5OLIq3?4FC51
     N00esca  s2019 05 071]I`]^P.802BXZd)y)[Ejg4?:7j'WXMBpQ\Si3a'wsJU-h8-qt,aC51
     N00esca  S2019 05 08t5U2Z]C8dredacted;e.;G*Z#f1Qj@^2Yk*SQnL5$8oa[bKJAGf%C51
     N00esca  s2019 05 08\jkGA5hYHG%RTV,\AtkA/SGc#heDm!49H/N6Bv7G(kX4H:0Ni!JRC51
     N00esca  S2019 05 08.qe_'/,(wE*`NA)J2P-X.A#+.l`XxHO:4huwuWutb5H)rMoIZM1UC51
     N00esca  s2019 05 08-h;4!t3J$'8l#5AZdpBTr%LEuOY;i0)^L_QcX2U%5EFJ/l=iLj4!C51
     N00esca  S2019 05 08?H#Zk3O9\h:g,ryaQ5,x9pn+3]1WL2wN61?I)H=ejWRv),^[uj34C51
     N00esca  s2019 05 08:[sNs++E=\MSHFWQntq^+#5h/s#*=jXL8`ECkD:NqnPq%'?SxW8lC51
     N00esca  S2019 05 08ee^p]Nh;TZ!yWFwrNH@$?E`^R^j:.pN.Pe]7y[kV[B(0kHh0GNIyC51
     N00esca  s2019 05 08gei[M`aUnk@+dw=5BMqdV[/$ItLRCK?boiUE#a?cK@:hU\r;0Pe*C51
     N00esca  S2019 05 08Vq'\6iQjX``W=HwM=tLV2-1^Huh3%E^,'tO2?ar%?5'pU3jK9!]FC51
     N00esca  s2019 05 08fuoac\@.ALioU!4Mn5=O+g*W/22lXxg'_Q%9_+].:8C1fkF]@RJ%C51
     N00esca  S2019 05 08J'4\n'olHv,S:eGSq*beB_vb*CEJOoOyQd6EE_kG[w!Pc]4,yyN8C51
     N00esca  s2019 05 08PkBs6mH,v!]:k(_PsafKbphSVJ-URE_ChXZ5Zf16#L'_eX2LD]hnC51
     N00esca  S2019 05 08%,G[0.kcTP,v/@1C`vYc;HBs[nqr7?xwfY.OJq)UW%Rja8@uVC6XC51
     N00esca  s2019 05 08?c934f$SclicksQ0HV[+1ldOD.j]OemLUKkr?X`+]9I9gT#i0^OAC51
     N00esca  S2019 05 08*9JOH;fQZY#6^nb#I.c1V)fYMPqroB+q7KHr^%bBMJFTs.qjtNM:C51
     N00esca  s2019 05 08-jYV[L9@CPkFH)KheredKy5K-b4$R.RZ:Zls7c.=(`Rs`UV2?[e.C51
     N00esca |C2019 05 15-LqAP#)]]+wrwJ/`2:fog'$C9C$XR1*#,4Z5q@HjrrS2*YODyx1.807
     N00esca |C2019 05 15?E3QQx5.+Ji@ua;DQ3p*yUcNSbL?i(MbN`nY9)hD-1)r3'#FwaR$807
     N00esca |C2019 05 15N`@U%c]RLemty,WA*eRH$6O'6Bfor63FesftRP1*VwQPv7aqAIDN807
     N00esca |C2019 05 15'ZWbp8*a%PxPF14b@,8Wn/yt2w#914![+B+[H]Rgx4UPvaiSUx,*807
     N00esca |C2019 05 151]aJnu*1LaGOEyQ2Q?h,JdH9Wk$ab'Vxa`Trg;?p:rGM$AodkZ2^807
     N00esca |C2019 05 15RjOV+,.gOexplanation`N5nVctL$lN+JI5:4!RfE'w+g;mTDS(Z807
     N00esca KC2019 05 15!)jd#=hIEMNnN=.r:]AZ#/Op=tI.J]xh:oWc:^k.f.p)'0fy,;Or291
     N00esca KC2019 05 152#u21yodg/3xMN]6I'-,bqLa#L=rVi+Y=E=3/^BB]oJthawoH*Ws291
     N00esca KC2019 05 15Vrw]iI92TLPLqm_ZQ[Wh+[bsB`BDDSTKo7n*M1Vy(#8=.MNw2/9+291

Station data:
(291) LPL/Spacewatch II  (N31.961669 W111.599905)  US/Arizona.  Observers J.
   V. Scotti, R. S. McMillan. 1.8-m f/2.7 reflector + CCD.
(807) Cerro Tololo Observatory, La Serena  (S30.169136 W70.805900)  Chile.
(C51) WISE. Measurers A. Mainzer, E. Wright, J. Bauer, T. Grav, J. Dailey, J.
   Masiero, R. Cutri, R. McMillan, R. Walker.

Orbital elements:  N00esca
   Perihelion 2019 May 30.670499 +/- 0.157 TT = 16:05:31 (JD 2458634.170499)
Epoch 2019 May 15.0 TT = JDT 2458618.5   Earth MOID: 0.0129   AutoNEOCP
M 355.72386167 +/- 0.19             (J2000 ecliptic)
n   0.27287825 +/- 0.00998          Peri.   23.60020 +/- 0.13
a   2.35409198 +/- 0.0574           Node   243.12348 +/- 0.11
e   0.5773872 +/- 0.0102            Incl.   28.47994 +/- 0.17
P   3.61                   H 22.0   G  0.15   U  9.6  
q 0.99486922 +/- 0.000369    Q 3.71331474 +/- 0.123
From 19 observations 2019 May 7-15; mean residual 0".69
Residuals in arcseconds: 
190507 C51  1.5+  .20+    190508 C51  .46-  .30+    190515 807  .07+  .02-    
190507 C51  .30+  1.3-    190508 C51  .45-  2.4+    190515 807  .27+  .33-    
190508 C51  1.1+  .31-    190508 C51  .17-  .97-    190515 291  .23+  .25-    
190508 C51  .21+  .77-    190515 807  .09-  .27-    190515 291  .11+  .17-    
190508 C51  .47+  .39+    190515 807  .01+  .04+    190515 291  .13-  .73+    
190508 C51  1.2-  .37+    190515 807  .29-  .01+    
190508 C51  1.4-  .19-    190515 807  .24-  .09+    

Ephemerides (geocentric):
Date (UTC) HH   RA              Dec         delta   r     elong  mag " sig PA
---- -- -- --  -------------   -----------  ------ ------ -----  --- ---- ---
2019 05 21 09  22 13 13.991   +12 47 30.59  .26452 1.0023  80.4 22.1 6.97  62
2019 05 21 10  22 13 21.292   +12 53 08.00  .26476 1.0022  80.3 22.1 7.04  62
2019 05 21 11  22 13 28.587   +12 58 44.80  .26500 1.0022  80.3 22.1 7.11  62
2019 05 21 12  22 13 35.875   +13 04 20.99  .26524 1.0021  80.3 22.1 7.18  62
2019 05 21 13  22 13 43.156   +13 09 56.56  .26548 1.0020  80.3 22.1 7.25  62
2019 05 21 14  22 13 50.431   +13 15 31.52  .26572 1.0020  80.3 22.1 7.33  62
2019 05 21 15  22 13 57.699   +13 21 05.86  .26596 1.0019  80.2 22.1 7.40  62
2019 05 21 16  22 14 04.960   +13 26 39.60  .26620 1.0018  80.2 22.1 7.47  62
2019 05 21 17  22 14 12.214   +13 32 12.71  .26644 1.0018  80.2 22.1 7.55  62
2019 05 21 18  22 14 19.462   +13 37 45.22  .26668 1.0017  80.2 22.1 7.62  62
2019 05 21 19  22 14 26.703   +13 43 17.11  .26693 1.0016  80.2 22.1 7.69  62
2019 05 21 20  22 14 33.938   +13 48 48.39  .26717 1.0016  80.1 22.2 7.77  62
2019 05 21 21  22 14 41.166   +13 54 19.06  .26741 1.0015  80.1 22.2 7.84  62
2019 05 21 22  22 14 48.387   +13 59 49.12  .26766 1.0014  80.1 22.2 7.92  62
2019 05 21 23  22 14 55.602   +14 05 18.56  .26790 1.0014  80.1 22.2 7.99  62
2019 05 22 00  22 15 02.810   +14 10 47.39  .26815 1.0013  80.1 22.2 8.07  62
2019 05 22 01  22 15 10.012   +14 16 15.61  .26840 1.0013  80.0 22.2 8.14  62
2019 05 22 02  22 15 17.207   +14 21 43.21  .26864 1.0012  80.0 22.2 8.22  62
2019 05 22 03  22 15 24.396   +14 27 10.20  .26889 1.0011  80.0 22.2 8.29  62
2019 05 22 04  22 15 31.578   +14 32 36.58  .26914 1.0011  80.0 22.2 8.37  62
2019 05 22 05  22 15 38.754   +14 38 02.35  .26939 1.0010  80.0 22.2 8.44  62
2019 05 22 06  22 15 45.924   +14 43 27.51  .26964 1.0010  79.9 22.2 8.52  62
2019 05 22 07  22 15 53.087   +14 48 52.06  .26989 1.0009  79.9 22.2 8.60  62
2019 05 22 08  22 16 00.243   +14 54 15.99  .27014 1.0008  79.9 22.2 8.67  62
2019 05 22 09  22 16 07.393   +14 59 39.32  .27039 1.0008  79.9 22.2 8.75  62
2019 05 22 10  22 16 14.537   +15 05 02.03  .27065 1.0007  79.9 22.2 8.83  62
2019 05 22 11  22 16 21.675   +15 10 24.14  .27090 1.0007  79.8 22.2 8.91  62
2019 05 22 12  22 16 28.806   +15 15 45.63  .27115 1.0006  79.8 22.2 8.98  62
2019 05 22 13  22 16 35.931   +15 21 06.51  .27141 1.0005  79.8 22.2 9.06  62
2019 05 22 14  22 16 43.049   +15 26 26.79  .27166 1.0005  79.8 22.2 9.14  63
2019 05 22 15  22 16 50.161   +15 31 46.45  .27192 1.0004  79.8 22.2 9.22  63
2019 05 22 16  22 16 57.267   +15 37 05.51  .27217 1.0004  79.8 22.2 9.30  63
2019 05 22 17  22 17 04.367   +15 42 23.96  .27243 1.0003  79.7 22.2 9.38  63
2019 05 22 18  22 17 11.461   +15 47 41.80  .27268 1.0003  79.7 22.2 9.45  63
2019 05 22 19  22 17 18.548   +15 52 59.03  .27294 1.0002  79.7 22.2 9.53  63
2019 05 22 20  22 17 25.629   +15 58 15.66  .27320 1.0001  79.7 22.2 9.61  63
2019 05 22 21  22 17 32.704   +16 03 31.67  .27346 1.0001  79.7 22.2 9.69  63
2019 05 22 22  22 17 39.773   +16 08 47.08  .27372 1.0000  79.6 22.2 9.77  63
2019 05 22 23  22 17 46.835   +16 14 01.89  .27398 1.0000  79.6 22.2 9.85  63
2019 05 23 00  22 17 53.892   +16 19 16.08  .27424 0.9999  79.6 22.2 9.93  63
2019 05 23 01  22 18 00.942   +16 24 29.68  .27450 0.9999  79.6 22.2 10.0  63
2019 05 23 02  22 18 07.987   +16 29 42.66  .27476 0.9998  79.6 22.2 10.1  63
2019 05 23 03  22 18 15.025   +16 34 55.05  .27502 0.9998  79.6 22.2 10.2  63
2019 05 23 04  22 18 22.057   +16 40 06.82  .27528 0.9997  79.5 22.2 10.3  63
2019 05 23 05  22 18 29.083   +16 45 18.00  .27555 0.9997  79.5 22.2 10.3  63
2019 05 23 06  22 18 36.103   +16 50 28.57  .27581 0.9996  79.5 22.2 10.4  63
2019 05 23 07  22 18 43.117   +16 55 38.54  .27607 0.9996  79.5 22.2 10.5  63
2019 05 23 08  22 18 50.125   +17 00 47.90  .27634 0.9995  79.5 22.2 10.6  63